Weather Roundup
Issued by NWS

Home | Current Version | Previous Version | Graphics & Text | Print | Product List | Glossary Off
Versions: 1 2 3 4 5 6 7 8 9 10 11 12 13 14 15 16 17 18 19 20 21 22 23 24 25 26 27 28 29 30 31 32 33 34 35 36 37 38 39 40 41 42 43 44 45 46 47 48 49 50

000
NZUS93 KARX 240259
HRRWXR

CURRENT HOURLY OBSERVATIONS ACROSS
MUCH OF THE UPPER MISSISSIPPI VALLEY
NATIONAL WEATHER SERVICE LA CROSSE WI
1000 PM CDT WED JUL 23 2014


...SOUTHEAST MINNESOTA...


CITY           SKY/WX    TMP DP  RH WIND       PRES   REMARKS
ROCHESTER      CLEAR     67  54  63 NE3       30.18S
ROCHESTER/MAYO FAIR      72  52  48 CALM      30.17S
WINONA         CLEAR     70  61  73 CALM      30.15F
AUSTIN         CLEAR     66  57  72 CALM      30.17S
ALBERT LEA     CLEAR     66  57  72 CALM      30.17S
DODGE CENTER   CLEAR     70  57  64 CALM      30.18S
PRESTON        CLEAR     65  59  80 CALM      30.18S
OWATONNA       CLEAR     64  55  72 CALM      30.17S
FARIBAULT      CLEAR     63  55  77 CALM      30.17S
$$

...ELSEWHERE IN MINNESOTA...


CITY           SKY/WX    TMP DP  RH WIND       PRES   REMARKS
MINNEAPOLIS    CLEAR     71  52  50 N6        30.16S
INTNL FALLS    CLEAR     54  53  97 CALM      30.19S
DULUTH         PTCLDY    62  55  77 E3        30.19S
RED WING       CLEAR     64  57  77 CALM      30.15S
REDWOOD FALLS  CLEAR     70  54  56 CALM      30.17S
MANKATO        CLEAR     70  52  52 NE8       30.17R
WORTHINGTON    CLEAR     66  55  68 NE5       30.20S
FAIRMONT       CLEAR     66  54  63 NW3       30.18R
$$

...SOUTHWEST WISCONSIN...


CITY           SKY/WX    TMP DP  RH WIND       PRES   REMARKS
LA CROSSE      PTCLDY    71  59  65 NW3       30.14S
PRAIRIE DU CHI CLEAR     69  57  65 CALM      30.14R
BOSCOBEL       CLEAR     66  60  81 CALM      30.14S
LONE ROCK      NOT AVBL
PLATTEVILLE    CLEAR     66  58  74 N3        30.16R
FORT MC COY    CLEAR     62  56  83 CALM      30.17R
VIROQUA        FAIR      64  60  86 CALM      30.17S
WIS DELLS      MOCLDY    65  56  74 CALM      30.16R
$$

...ELSEWHERE IN WISCONSIN...


CITY           SKY/WX    TMP DP  RH WIND       PRES   REMARKS
MILWAUKEE      PTCLDY    59  51  75 N7        30.17R
MADISON        CLEAR     65  56  72 SE10      30.16R
GREEN BAY      CLEAR     62  49  62 E7        30.17S
EAU CLAIRE     CLEAR     65  57  75 NE5       30.16S
BLACK RVR FLS  FAIR      59  54  84 CALM      30.15S
MEDFORD        CLEAR     57  55  92 CALM      30.19S
WAUSAU         CLEAR     66  54  65 N5        30.17R
WIS RAPIDS     PTCLDY    63  55  75 CALM      30.18R
MARSHFIELD     MOCLDY    66  57  72 N3        30.17S
RICE LAKE      CLEAR     64  55  72 CALM      30.19S
$$

...NORTHEAST IOWA...


CITY           SKY/WX    TMP DP  RH WIND       PRES   REMARKS
WATERLOO       PTCLDY    67  61  81 CALM      30.15R
DUBUQUE        CLEAR     64  58  80 CALM      30.15S
DECORAH        CLEAR     68  59  73 CALM      30.16S
MASON CITY     CLEAR     63  59  87 NE5       30.18S
CHARLES CITY   CLEAR     68  57  68 NE5       30.17S
OELWEIN        CLEAR     70  59  68 NE3       30.17R
$$

...ELSEWHERE IN IOWA...


CITY           SKY/WX    TMP DP  RH WIND       PRES   REMARKS
DES MOINES     CLEAR     74  57  55 E6        30.15R
IOWA CITY      CLEAR     66  59  78 CALM      30.16R
FORT DODGE     CLEAR     64  59  82 CALM      30.17R
MARSHALLTOWN   CLEAR     69  60  73 E3        30.15S
CEDAR RAPIDS   CLEAR     67  55  65 CALM      30.15R
$$

...NORTHERN ILLINOIS...


CITY           SKY/WX    TMP DP  RH WIND       PRES   REMARKS
CHICAGO-OHARE  PTCLDY    62  49  62 N12       30.13S
DUPAGE         CLEAR     58  48  69 N7        30.15R
CHICAGO-MIDWAY CLEAR     65  51  60 N10       30.13S
MOLINE         CLEAR     65  57  75 CALM      30.13S
ROCKFORD       PTCLDY    63  52  67 E7        30.18R
STERLING       PTCLDY    63  55  77 E7        30.15R
PEORIA         CLEAR     67  57  70 CALM      30.13R
$$

NOTE: "FAIR" INDICATES FEW OR NO CLOUDS BELOW 12,000 FEET WITH NO
SIGNIFICANT WEATHER AND/OR OBSTRUCTIONS TO VISIBILITY. WIND
SPEEDS ARE IN MILES-PER-HOUR.



USA.gov is the U.S. government's official web portal to all federal, state and local government web resources and services.